User: anonymous   Login
Location: Columbia
(38.9520°N, 92.3340°W)
Time: 05:13:48
(UTC-05:00)
Language:

Cosmos 2219 Rocket - Orbit

View from above orbital plane
View from above orbital plane
View from above satellite
View from above satellite

Ground track
Ground track

The orbit data is extracted from the following two-line orbital elements,

1 22220U 92076B   16236.44344152  .00000243  00000-0  14595-3 0  9993
2 22220  71.0020 325.9775 0012843 356.8097  75.9120 14.16401839228614
Epoch (UTC): 23 August 2016 10:38:33
Eccentricity: 0.0012843
inclination: 71.0020°
perigee height: 828 km
apogee height: 847 km
right ascension of ascending node: 325.9775°
argument of perigee: 356.8097°
revolutions per day: 14.16401839
mean anomaly at epoch: 75.9120°
orbit number at epoch: 22861

The dashed part of the orbit path shows where the satellite is in the earth's shadow,  

DLR